This demonstration page uses our WeatherBlox Daily Observations layout. Learn more.

Hourly Observations for August 18, 2015

Temp ( °F °C ) Dew Point ( °F °C ) Humidity (%) Winds ( mph kmh ) Pressure ( in mb ) Visibility ( mi km ) Precip ( " mm )
12:15 am 00:15 Cloudy with Mist and Fog 62 16.5 60 15.7 95 95 ENE 12 19 29.85 1011 2.5 4.02335 0 0
12:35 am 00:35 Cloudy with Mist and Fog 62 16.5 60 15.7 95 95 E 8 13 29.83 1010 2 3.21868 0 0
12:55 am 00:55 Cloudy with Mist and Fog 62 16.5 60 15.8 96 96 E 10 17 29.83 1010 1.25 2.011675 0 0
1:15 am 01:15 Cloudy with Mist and Fog 62 16.5 61 15.9 96 96 E 8 13 29.8 1009 1 1.60934 0 0
1:35 am 01:35 Cloudy with Mist and Fog 62 16.6 61 16 96 96 ENE 7 11 29.8 1009 1 1.60934 0 0
1:55 am 01:55 Cloudy with Mist and Fog 62 16.7 61 16 96 96 ENE 8 13 29.8 1009 0.75 1.207005 0 0
2:15 am 02:15 Cloudy with Mist and Fog 62 16.8 61 16.2 96 96 E 9 15 29.8 1009 0.75 1.207005 0 0
2:35 am 02:35 Cloudy with Mist and Fog 63 17 61 16.3 96 96 ESE 9 15 29.77 1008 0.75 1.207005 0 0
2:55 am 02:55 Cloudy with Fog 63 17 62 16.4 96 96 E 9 15 29.77 1008 0.5 0.80467 0 0
3:15 am 03:15 Cloudy with Fog 63 17 62 16.4 96 96 E 7 11 29.77 1008 0.5 0.80467 0 0
3:35 am 03:35 Cloudy with Fog 63 17 62 16.5 97 97 E 7 11 29.77 1008 0.5 0.80467 0 0
3:55 am 03:55 Cloudy with Fog 63 17.1 62 16.5 96 96 E 5 7 29.74 1007 0.5 0.80467 0 0
4:15 am 04:15 Cloudy with Fog 63 17.1 62 16.5 96 96 E 7 11 29.74 1007 0.5 0.80467 0 0
4:35 am 04:35 Cloudy with Fog 63 17.1 62 16.5 96 96 Calm 29.77 1008 0.5 0.80467 0 0
4:55 am 04:55 Cloudy with Fog 63 17.2 62 16.6 96 96 WNW 6 9 29.77 1008 0.5 0.80467 0 0
5:15 am 05:15 Cloudy with Fog 63 17.2 62 16.6 96 96 Calm 29.77 1008 0.5 0.80467 0 0
5:35 am 05:35 Cloudy with Fog 63 17.2 62 16.6 96 96 Calm 29.74 1007 0.5 0.80467 0 0
5:55 am 05:55 Cloudy with Nearby Thunderstorms 63 17.2 62 16.6 96 96 NW 9 15 29.77 1008 0.5 0.80467 0 0
6:15 am 06:15 Cloudy with Light Rain 63 17 62 16.4 96 96 NNW 13 20 29.77 1008 1.25 2.011675 0 0
6:35 am 06:35 Cloudy with Mist and Fog 62 16.8 61 16.2 96 96 NNW 3 6 29.77 1008 0.75 1.207005 0 0
6:55 am 06:55 Cloudy with Mist and Fog 62 16.9 61 16.2 96 96 N 7 11 29.77 1008 1.25 2.011675 0 0
7:15 am 07:15 Cloudy with Mist and Fog 62 16.9 61 16.3 96 96 N 16 26 29.77 1008 1.25 2.011675 0 0
7:35 am 07:35 Cloudy 60 15.5 59 15 97 97 NNE 7 11 29.77 1008 10 16.0934 0 0
7:55 am 07:55 Cloudy 59 15.2 58 14.6 96 96 Calm 29.74 1007 10 16.0934 0 0
8:15 am 08:15 Cloudy with Nearby Thunderstorms 60 15.5 59 14.9 96 96 Calm 29.77 1008 10 16.0934 0 0
8:35 am 08:35 Cloudy 61 16.1 58 14.6 91 91 NW 3 6 29.77 1008 10 16.0934 0 0
8:55 am 08:55 Cloudy 61 16.1 58 14.7 91 91 WNW 6 9 29.8 1009 10 16.0934 0 0
9:15 am 09:15 Cloudy 62 16.5 59 14.9 90 90 WNW 9 15 29.8 1009 10 16.0934 0 0
9:35 am 09:35 Cloudy 62 16.5 58 14.4 87 87 WNW 8 13 29.77 1008 10 16.0934 0 0
9:55 am 09:55 Cloudy 62 16.5 57 14.1 86 86 NW 9 15 29.77 1008 10 16.0934 0 0
10:15 am 10:15 Cloudy 63 17.2 57 14 82 82 NW 9 15 29.77 1008 10 16.0934 0 0
10:35 am 10:35 Cloudy 63 17.2 56 13.5 79 79 NNW 12 19 29.77 1008 10 16.0934 0 0
10:55 am 10:55 Cloudy 64 17.5 57 13.7 79 79 NW 14 22 29.74 1007 10 16.0934 0 0
11:15 am 11:15 Cloudy 64 18 57 14 78 78 NW 12 19 29.74 1007 10 16.0934 0 0
11:35 am 11:35 Mostly Cloudy 65 18.6 57 13.7 73 73 NW 13 20 29.74 1007 10 16.0934 0 0
11:55 am 11:55 Mostly Cloudy 66 19.1 57 14.1 73 73 NW 13 20 29.74 1007 10 16.0934 0 0
12:15 pm 12:15 Mostly Cloudy 68 19.9 57 14.1 69 69 NNW 15 24 29.74 1007 10 16.0934 0 0
12:35 pm 12:35 Mostly Cloudy 67 19.7 56 13.5 68 68 NNW 12 19 29.74 1007 10 16.0934 0 0
12:55 pm 12:55 Mostly Cloudy 67 19.6 55 12.9 65 65 NNW 13 20 29.74 1007 10 16.0934 0 0
1:15 pm 13:15 Cloudy 68 19.8 55 13 65 65 NNW 10 17 29.74 1007 10 16.0934 0 0
1:35 pm 13:35 Mostly Cloudy 69 20.5 55 13 62 62 NNW 14 22 29.74 1007 10 16.0934 0 0
1:55 pm 13:55 Mostly Cloudy 69 20.4 56 13.3 64 64 NNW 13 20 29.74 1007 10 16.0934 0 0
2:15 pm 14:15 Mostly Cloudy 69 20.6 55 13 62 62 NW 12 19 29.74 1007 10 16.0934 0 0
2:35 pm 14:35 Mostly Cloudy 70 21 55 12.9 60 60 NNW 13 20 29.74 1007 10 16.0934 0 0
2:55 pm 14:55 Mostly Cloudy 70 21.1 56 13.2 61 61 NW 8 13 29.74 1007 10 16.0934 0 0
3:15 pm 15:15 Mostly Cloudy 71 21.6 56 13.3 59 59 NW 10 17 29.71 1006 10 16.0934 0 0
3:35 pm 15:35 Partly Cloudy 70 21.3 55 12.9 59 59 NW 9 15 29.74 1007 10 16.0934 0 0
3:55 pm 15:55 Mostly Cloudy 71 21.7 56 13.5 60 60 NNW 10 17 29.71 1006 10 16.0934 0 0
4:15 pm 16:15 Mostly Cloudy 70 21.1 55 12.9 60 60 NW 10 17 29.74 1007 10 16.0934 0 0
4:35 pm 16:35 Mostly Cloudy 69 20.7 56 13.4 63 63 NNW 15 24 29.74 1007 10 16.0934 0 0
4:55 pm 16:55 Mostly Cloudy 69 20.8 56 13.4 63 63 N 17 28 29.74 1007 10 16.0934 0 0
5:15 pm 17:15 Partly Cloudy 68 20.2 55 13 63 63 NNW 15 24 29.74 1007 10 16.0934 0 0
5:35 pm 17:35 Mostly Cloudy 65 18.5 55 12.5 68 68 NNW 16 26 29.77 1008 10 16.0934 0 0
5:55 pm 17:55 Mostly Cloudy 65 18.4 54 12.1 67 67 NNW 13 20 29.77 1008 10 16.0934 0 0
6:15 pm 18:15 Mostly Cloudy 65 18.5 53 11.6 64 64 NNW 13 20 29.77 1008 10 16.0934 0 0
6:35 pm 18:35 Mostly Cloudy 64 17.8 52 11 65 65 NNW 13 20 29.77 1008 10 16.0934 0 0
6:55 pm 18:55 Partly Cloudy 64 17.7 52 11.3 66 66 NNW 10 17 29.77 1008 10 16.0934 0 0
7:15 pm 19:15 Partly Cloudy 62 16.9 51 10.5 66 66 NNW 12 19 29.83 1010 10 16.0934 0 0
7:35 pm 19:35 Partly Cloudy 62 16.5 51 10.4 67 67 N 12 19 29.83 1010 10 16.0934 0 0
7:55 pm 19:55 Sunny 60 15.7 50 10.1 70 70 NNW 13 20 29.83 1010 10 16.0934 0 0
8:15 pm 20:15 Sunny 59 15.1 49 9.5 69 69 NNW 9 15 29.83 1010 10 16.0934 0 0
8:35 pm 20:35 Clear 58 14.5 49 9.4 72 72 NNW 10 17 29.88 1012 10 16.0934 0 0
8:55 pm 20:55 Clear 58 14.2 48 9 71 71 NNW 12 19 29.88 1012 10 16.0934 0 0
9:15 pm 21:15 Clear 57 14.1 48 9 72 72 N 9 15 29.88 1012 10 16.0934 0 0
9:35 pm 21:35 Clear 57 14 48 9 72 72 NNW 9 15 29.91 1013 10 16.0934 0 0
9:55 pm 21:55 Clear 56 13.6 48 9.1 74 74 N 8 13 29.88 1012 10 16.0934 0 0
10:15 pm 22:15 Clear 56 13.4 49 9.4 77 77 NW 6 9 29.91 1013 10 16.0934 0 0
10:35 pm 22:35 Clear 55 13 49 9.6 80 80 NNW 5 7 29.91 1013 10 16.0934 0 0
10:55 pm 22:55 Clear 55 12.7 49 9.7 82 82 NW 5 7 29.94 1014 10 16.0934 0 0
11:15 pm 23:15 Clear 54 12.3 50 10 86 86 NW 5 7 29.97 1015 10 16.0934 0 0
11:35 pm 23:35 Clear 54 12 50 10 88 88 WNW 6 9 29.97 1015 10 16.0934 0 0
11:55 pm 23:55 Clear 53 11.8 50 10 89 89 WNW 6 9 29.97 1015 10 16.0934 0 0

Powered by AerisWeather